Mount Pleasant, TN

10:45 PM CST on February 07, 2016 (GMT -0600)
Maury County

Weather History for KMRC - January, 2014

Change the Weather History Date:

Sunday, January 19, 2014

  Actual Average (KBNA) Record (KBNA)
Temperature  
Mean Temperature 42 °F 38 °F  
Max Temperature 50 °F 47 °F 72 °F (1974)
Min Temperature 35 °F 28 °F -5 °F (1940)
Degree Days  
Heating Degree Days 22    
Month to date heating degree days  
Since 1 July heating degree days  
Cooling Degree Days 0    
Month to date cooling degree days  
Year to date cooling degree days  
Moisture  
Dew Point 30 °F    
Average Humidity 65    
Maximum Humidity 81    
Minimum Humidity 46    
Precipitation  
Precipitation 0.00 in 0.12 in 2.36 in (1988)
Month to date precipitation 2.24  
Year to date precipitation 2.24  
Sea Level Pressure  
Sea Level Pressure 30.02 in    
Wind  
Wind Speed 6 mph (WSW)    
Max Wind Speed 12 mph    
Max Gust Speed -    
Visibility 10 miles    
Events      
T = Trace of Precipitation, MM = Missing Value Source: NWS Daily Summary

Daily Weather History Graph

Daily Weather History Graph

Search for Another Location

Airport or City:

Trip Planner

Search our weather history database for the weather conditions in past years. The results will help you decide how hot, cold, wet, or windy it might be!

Date:

Astronomy

Jan. 19, 2014 Rise Set
Actual Time 6:56 AM CST 5:03 PM CST
Civil Twilight 6:28 AM CST 5:30 PM CST
Nautical Twilight 5:57 AM CST 6:01 PM CST
Astronomical Twilight 5:27 AM CST 6:32 PM CST
Moon 8:31 PM CST (1/19) 8:34 AM CST (1/19)
Length of Visible Light 11h 02m
Length of Day
10h 06m
Waning Gibbous, 89% of the Moon is Illuminated
Jan 19
Waning Gibbous
Jan 23
Last Quarter
Jan 30
New
Feb 6
First Quarter
Feb 14
Full

Hourly Weather History & Observations

Time (CST) Temp. Windchill Dew Point Humidity Pressure Visibility Wind Dir Wind Speed Gust Speed Precip Events Conditions
12:35 AM 42.8 °F 38.6 °F 30.2 °F 61% 29.84 in 10.0 mi SW 6.9 mph - N/A   Overcast
12:55 AM 42.8 °F 39.3 °F 28.4 °F 57% 29.85 in 10.0 mi WSW 5.8 mph - N/A   Overcast
1:15 AM 42.8 °F 40.1 °F 28.4 °F 57% 29.86 in 10.0 mi West 4.6 mph - N/A   Mostly Cloudy
1:35 AM 42.8 °F 41.1 °F 28.4 °F 57% 29.87 in 10.0 mi West 3.5 mph - N/A   Overcast
1:55 AM 44.6 °F 39.7 °F 30.2 °F 57% 29.89 in 10.0 mi NW 9.2 mph - N/A   Mostly Cloudy
2:15 AM 42.8 °F 38.0 °F 32.0 °F 66% 29.91 in 10.0 mi NNW 8.1 mph - N/A   Partly Cloudy
2:35 AM 39.2 °F 33.0 °F 30.2 °F 70% 29.93 in 10.0 mi NW 9.2 mph - N/A   Clear
2:55 AM 39.2 °F 35.0 °F 30.2 °F 70% 29.94 in 10.0 mi NW 5.8 mph - N/A   Clear
3:15 AM 37.4 °F 32.8 °F 30.2 °F 75% 29.94 in 10.0 mi WNW 5.8 mph - N/A   Clear
3:35 AM 37.4 °F 32.1 °F 30.2 °F 75% 29.95 in 10.0 mi WNW 6.9 mph - N/A   Clear
3:55 AM 37.4 °F 33.8 °F 30.2 °F 75% 29.96 in 10.0 mi WNW 4.6 mph - N/A   Mostly Cloudy
4:15 AM 37.4 °F 33.8 °F 30.2 °F 75% 29.97 in 10.0 mi West 4.6 mph - N/A   Mostly Cloudy
4:35 AM 35.6 °F 31.7 °F 30.2 °F 81% 29.97 in 10.0 mi WNW 4.6 mph - N/A   Partly Cloudy
4:55 AM 35.6 °F 31.7 °F 30.2 °F 81% 29.98 in 10.0 mi WNW 4.6 mph - N/A   Mostly Cloudy
5:15 AM 35.6 °F 31.7 °F 30.2 °F 81% 29.98 in 10.0 mi West 4.6 mph - N/A   Overcast
5:35 AM 35.6 °F 31.7 °F 30.2 °F 81% 30.00 in 10.0 mi West 4.6 mph - N/A   Overcast
5:55 AM 35.6 °F 30.7 °F 30.2 °F 81% 30.01 in 10.0 mi WNW 5.8 mph - N/A   Overcast
6:15 AM 35.6 °F 31.7 °F 30.2 °F 81% 30.02 in 10.0 mi NW 4.6 mph - N/A   Overcast
6:35 AM 35.6 °F 31.7 °F 30.2 °F 81% 30.03 in 10.0 mi Variable 4.6 mph - N/A   Overcast
6:55 AM 35.6 °F 32.8 °F 30.2 °F 81% 30.04 in 10.0 mi WNW 3.5 mph - N/A   Overcast
7:15 AM 35.6 °F 29.9 °F 30.2 °F 81% 30.06 in 10.0 mi NW 6.9 mph - N/A   Overcast
7:35 AM 35.6 °F 31.7 °F 30.2 °F 81% 30.06 in 10.0 mi WNW 4.6 mph - N/A   Overcast
7:55 AM 35.6 °F 29.2 °F 28.4 °F 75% 30.07 in 10.0 mi NW 8.1 mph - N/A   Overcast
8:15 AM 35.6 °F 29.2 °F 28.4 °F 75% 30.07 in 10.0 mi WNW 8.1 mph - N/A   Overcast
8:35 AM 35.6 °F 30.7 °F 28.4 °F 75% 30.08 in 10.0 mi West 5.8 mph - N/A   Overcast
8:55 AM 37.4 °F 33.8 °F 30.2 °F 75% 30.09 in 10.0 mi WNW 4.6 mph - N/A   Overcast
9:15 AM 37.4 °F 33.8 °F 30.2 °F 75% 30.10 in 10.0 mi NW 4.6 mph - N/A   Overcast
9:35 AM 37.4 °F 32.8 °F 28.4 °F 70% 30.12 in 10.0 mi WNW 5.8 mph - N/A   Overcast
9:55 AM 37.4 °F 31.4 °F 28.4 °F 70% 30.13 in 10.0 mi WNW 8.1 mph - N/A   Mostly Cloudy
10:15 AM 39.2 °F 35.0 °F 30.2 °F 70% 30.13 in 10.0 mi West 5.8 mph - N/A   Clear
10:35 AM 39.2 °F 33.6 °F 30.2 °F 70% 30.13 in 10.0 mi WNW 8.1 mph - N/A   Clear
10:55 AM 41.0 °F 37.1 °F 30.2 °F 65% 30.13 in 10.0 mi WSW 5.8 mph - N/A   Clear
11:15 AM 42.8 °F 40.1 °F 32.0 °F 66% 30.12 in 10.0 mi SSW 4.6 mph - N/A   Clear
11:35 AM 42.8 °F 40.1 °F 32.0 °F 66% 30.11 in 10.0 mi SW 4.6 mph - N/A   Clear
11:55 AM 44.6 °F - 32.0 °F 61% 30.09 in 10.0 mi Calm Calm - N/A   Clear
12:15 PM 46.4 °F 45.2 °F 32.0 °F 57% 30.09 in 10.0 mi Variable 3.5 mph - N/A   Clear
12:35 PM 46.4 °F 43.5 °F 33.8 °F 62% 30.08 in 10.0 mi Variable 5.8 mph - N/A   Clear
12:55 PM 46.4 °F 41.9 °F 33.8 °F 62% 30.07 in 10.0 mi SW 9.2 mph - N/A   Clear
1:15 PM 48.2 °F - 32.0 °F 54% 30.06 in 10.0 mi WSW 8.1 mph - N/A   Clear
1:35 PM 48.2 °F - 33.8 °F 58% 30.05 in 10.0 mi SSW 5.8 mph - N/A   Clear
1:55 PM 48.2 °F - 32.0 °F 54% 30.04 in 10.0 mi SW 8.1 mph - N/A   Clear
2:15 PM 50.0 °F - 32.0 °F 50% 30.05 in 10.0 mi SW 10.4 mph - N/A   Clear
2:35 PM 50.0 °F - 30.2 °F 47% 30.04 in 10.0 mi Variable 4.6 mph - N/A   Clear
2:55 PM 50.0 °F - 32.0 °F 50% 30.04 in 10.0 mi WSW 6.9 mph - N/A   Clear
3:15 PM 50.0 °F - 30.2 °F 47% 30.04 in 10.0 mi West 5.8 mph - N/A   Clear
3:35 PM 50.0 °F - 30.2 °F 47% 30.04 in 10.0 mi West 8.1 mph - N/A   Clear
3:55 PM 50.0 °F - 30.2 °F 47% 30.05 in 10.0 mi WSW 6.9 mph - N/A   Clear
4:15 PM 48.2 °F - 30.2 °F 50% 30.05 in 10.0 mi SW 10.4 mph - N/A   Clear
4:35 PM 48.2 °F - 28.4 °F 46% 30.06 in 10.0 mi WSW 10.4 mph - N/A   Clear
4:55 PM 46.4 °F 43.5 °F 28.4 °F 50% 30.06 in 10.0 mi WSW 5.8 mph - N/A   Clear
5:15 PM 44.6 °F 40.7 °F 28.4 °F 53% 30.05 in 10.0 mi WSW 6.9 mph - N/A   Clear
5:35 PM 44.6 °F 40.7 °F 28.4 °F 53% 30.04 in 10.0 mi SW 6.9 mph - N/A   Clear
5:55 PM 41.0 °F 38.0 °F 28.4 °F 61% 30.03 in 10.0 mi South 4.6 mph - N/A   Clear
6:15 PM 39.2 °F 35.9 °F 26.6 °F 61% 30.04 in 10.0 mi SW 4.6 mph - N/A   Clear
6:55 PM 37.4 °F 33.8 °F 26.6 °F 65% 30.02 in 10.0 mi SSW 4.6 mph - N/A   Clear
7:15 PM 37.4 °F 32.8 °F 26.6 °F 65% 30.02 in 10.0 mi South 5.8 mph - N/A   Clear
7:35 PM 35.6 °F 30.7 °F 26.6 °F 70% 30.01 in 10.0 mi SSW 5.8 mph - N/A   Clear
7:55 PM 37.4 °F 32.1 °F 28.4 °F 70% 30.01 in 10.0 mi SSW 6.9 mph - N/A   Clear
8:15 PM 37.4 °F 30.8 °F 28.4 °F 70% 30.01 in 10.0 mi SSW 9.2 mph - N/A   Clear
8:35 PM 39.2 °F 33.6 °F 28.4 °F 65% 30.01 in 10.0 mi SW 8.1 mph - N/A   Clear
8:55 PM 39.2 °F 32.5 °F 28.4 °F 65% 30.01 in 10.0 mi SSW 10.4 mph - N/A   Clear
9:15 PM 39.2 °F 32.0 °F 28.4 °F 65% 30.00 in 10.0 mi SSW 11.5 mph - N/A   Clear
9:35 PM 39.2 °F 32.0 °F 28.4 °F 65% 29.99 in 10.0 mi SSW 11.5 mph - N/A   Clear
9:55 PM 39.2 °F 32.0 °F 28.4 °F 65% 30.00 in 10.0 mi SSW 11.5 mph - N/A   Clear
10:15 PM 39.2 °F 33.0 °F 28.4 °F 65% 29.99 in 10.0 mi SW 9.2 mph - N/A   Clear
10:35 PM 39.2 °F 33.0 °F 28.4 °F 65% 29.99 in 10.0 mi SW 9.2 mph - N/A   Clear
10:55 PM 39.2 °F 33.0 °F 28.4 °F 65% 29.98 in 10.0 mi SW 9.2 mph - N/A   Clear
11:15 PM 39.2 °F 32.5 °F 28.4 °F 65% 29.97 in 10.0 mi SW 10.4 mph - N/A   Clear
11:35 PM 39.2 °F 32.0 °F 28.4 °F 65% 29.96 in 10.0 mi SSW 11.5 mph - N/A   Clear
11:55 PM 39.2 °F 33.0 °F 28.4 °F 65% 29.96 in 10.0 mi SW 9.2 mph - N/A   Clear